Location: Dennis Manor
(64.8292°N, 147.5397°W)
Time: 08:37:19
(UTC+00:00)

Envisat - Pass Details

Date: 27 October 2020
Orbit: 764 x 766 km, 98.1° (Epoch: 05 December)

Event Time Altitude Azimuth Distance (km) Brightness Sun altitude
Rises 03:18:58 0° 186° (S) 3,230 6.4 -10.1°
Reaches altitude 10° 03:21:24 10° 193° (SSW) 2,308 5.8 -10.3°
Maximum altitude 03:26:12 41° 264° (W) 1,115 4.5 -10.8°
Drops below altitude 10° 03:31:01 10° 334° (NNW) 2,321 5.8 -11.4°
Sets 03:33:29 0° 342° (NNW) 3,251 6.4 -11.6°
